TimeEDT,TemperatureF,Dew PointF,Humidity,Sea Level PressureIn,VisibilityMPH,Wind Direction,Wind SpeedMPH,Gust SpeedMPH,PrecipitationIn,Events,Conditions,WindDirDegrees,DateUTC
12:15 AM,73.4,69.8,88,29.82,10.0,Calm,Calm,-,N/A,,Clear,0,2013-09-22 04:15:00
12:35 AM,73.4,69.8,88,29.82,10.0,Calm,Calm,-,N/A,,Clear,0,2013-09-22 04:35:00
12:55 AM,73.4,69.8,88,29.82,10.0,Calm,Calm,-,N/A,,Clear,0,2013-09-22 04:55:00
1:15 AM,75.2,69.8,83,29.82,10.0,Calm,Calm,-,N/A,,Clear,0,2013-09-22 05:15:00
1:35 AM,73.4,69.8,88,29.82,10.0,Calm,Calm,-,N/A,,Scattered Clouds,0,2013-09-22 05:35:00
1:55 AM,73.4,69.8,88,29.81,10.0,Calm,Calm,-,N/A,,Mostly Cloudy,0,2013-09-22 05:55:00
2:15 AM,73.4,69.8,88,29.81,10.0,Calm,Calm,-,N/A,,Scattered Clouds,0,2013-09-22 06:15:00
2:35 AM,73.4,71.6,94,29.81,10.0,Calm,Calm,-,N/A,,Scattered Clouds,0,2013-09-22 06:35:00
2:55 AM,73.4,71.6,94,29.80,10.0,Calm,Calm,-,N/A,,Scattered Clouds,0,2013-09-22 06:55:00
3:15 AM,73.4,71.6,94,29.80,10.0,SE,3.5,-,N/A,,Clear,140,2013-09-22 07:15:00
3:35 AM,73.4,71.6,94,29.80,10.0,SE,4.6,-,N/A,,Clear,140,2013-09-22 07:35:00
3:55 AM,73.4,71.6,94,29.79,10.0,SSE,5.8,-,N/A,,Clear,150,2013-09-22 07:55:00
4:15 AM,73.4,71.6,94,29.79,10.0,SSE,4.6,-,N/A,,Clear,150,2013-09-22 08:15:00
4:35 AM,73.4,71.6,94,29.79,10.0,SSE,5.8,-,N/A,,Clear,160,2013-09-22 08:35:00
4:55 AM,73.4,69.8,88,29.79,10.0,SSE,8.1,-,N/A,,Scattered Clouds,150,2013-09-22 08:55:00
5:15 AM,73.4,69.8,88,29.79,10.0,SSE,4.6,-,N/A,,Scattered Clouds,160,2013-09-22 09:15:00
5:35 AM,73.4,69.8,88,29.79,10.0,Calm,Calm,-,N/A,,Clear,0,2013-09-22 09:35:00
5:55 AM,73.4,69.8,88,29.79,10.0,Calm,Calm,-,N/A,,Clear,0,2013-09-22 09:55:00
6:15 AM,73.4,69.8,88,29.79,10.0,SSE,3.5,-,N/A,,Clear,150,2013-09-22 10:15:00
6:35 AM,73.4,69.8,88,29.79,10.0,SSE,3.5,-,N/A,,Clear,160,2013-09-22 10:35:00
6:50 AM,73.4,71.6,94,29.79,10.0,Calm,Calm,-,N/A,,Mostly Cloudy,0,2013-09-22 10:50:00
7:50 AM,75.2,71.6,89,29.80,12.0,Calm,Calm,-,N/A,,Mostly Cloudy,0,2013-09-22 11:50:00
8:54 AM,77.0,73.4,89,29.83,15.0,Variable,4.6,-,N/A,,Mostly Cloudy,0,2013-09-22 12:54:00
9:54 AM,82.4,71.6,70,29.83,15.0,South,5.8,-,N/A,,Mostly Cloudy,180,2013-09-22 13:54:00
10:51 AM,84.2,71.6,66,29.83,15.0,SSW,8.1,-,N/A,,Mostly Cloudy,200,2013-09-22 14:51:00
11:52 AM,86.0,69.8,58,29.83,20.0,SSW,13.8,25.3,N/A,,Mostly Cloudy,210,2013-09-22 15:52:00
12:55 PM,89.6,71.6,55,29.82,20.0,SW,11.5,20.7,N/A,,Mostly Cloudy,220,2013-09-22 16:55:00
1:50 PM,89.6,69.8,52,29.80,12.0,SSW,13.8,-,N/A,,Mostly Cloudy,210,2013-09-22 17:50:00
2:56 PM,78.8,71.6,78,29.80,10.0,WSW,12.7,18.4,N/A,Rain,Light Rain,240,2013-09-22 18:56:00
3:50 PM,82.4,73.4,74,29.79,15.0,West,6.9,-,N/A,,Mostly Cloudy,260,2013-09-22 19:50:00
4:50 PM,84.2,71.6,66,29.80,15.0,West,8.1,-,N/A,,Mostly Cloudy,280,2013-09-22 20:50:00
5:57 PM,82.4,73.4,74,29.80,15.0,Calm,Calm,-,N/A,,Mostly Cloudy,0,2013-09-22 21:57:00
6:50 PM,80.6,73.4,79,29.82,15.0,Calm,Calm,-,N/A,,Mostly Cloudy,0,2013-09-22 22:50:00
7:50 PM,78.8,73.4,83,29.83,15.0,Calm,Calm,-,N/A,,Mostly Cloudy,0,2013-09-22 23:50:00
8:55 PM,78.8,75.2,89,29.85,10.0,Calm,Calm,-,N/A,,Mostly Cloudy,0,2013-09-23 00:55:00
9:50 PM,78.8,75.2,89,29.85,10.0,Calm,Calm,-,N/A,,Mostly Cloudy,0,2013-09-23 01:50:00
10:55 PM,77.0,73.4,89,29.87,10.0,Calm,Calm,-,N/A,,Clear,0,2013-09-23 02:55:00
11:15 PM,77.0,73.4,89,29.88,10.0,Calm,Calm,-,N/A,,Clear,0,2013-09-23 03:15:00
11:35 PM,77.0,73.4,89,29.88,10.0,Calm,Calm,-,N/A,,Clear,0,2013-09-23 03:35:00
11:55 PM,75.2,73.4,94,29.88,10.0,SE,3.5,-,N/A,,Clear,140,2013-09-23 03:55:00